STARLINK-35026 (65514 NORAD) Tracking and Keplerian Element Data

This shows tracking and keplerian element data for the satellite.

Feedback or suggestion? Click here.




ElementValue
Catalog65514
NameSTARLINK-35026
Epoch Orbit1630
Epoch Day353.53055455
Epoch Year2025
RAAN286.4312
Inclination53.1607
Eccentricity0.0001595
Argument of Perigee83.8273
Mean Anonmoly276.2914
Mean Motion15.39656061
Decay Rate0.00045667
L11 65514U 25198Y 25353.53055455 .00045667 00000+0 11435-2 0 9999
L22 65514 53.1607 286.4312 0001595 83.8273 276.2914 15.39656061 16305



Live tracking and technical data element details for STARLINK-35026 (NORAD 65514). STARLINK-35026 can be tracked NOW for your location showing map with azimuth and elevation plus other details from your city location.







IsCatalogInMostPopularTable: catalog: 65514, numindb: 2
Update: records affected: 1



GetName: 65514 STARLINK-35026

Hit Count: updated at: Mon, 09 Feb 2026 07:51:20 GMT